GW3346 Weather Reports


Display with metric or nautical units.
time (UTC)temp
F
wind
direction
speed
MPH
gust
MPH
rain 1hr
in
rain 24hr
in
rain mn
in
humidity
%
barometer
mb
20260508231109 55 251 5.0 6.0 0.00 0.03 0.03 97 1010.6
20260508230606 55 255 4.0 5.0 0.00 0.02 0.02 96 1010.9
20260508225600 56 309 3.0 4.0 0.00 0.01 0.01 96 1010.6
20260508225057 56 309 3.0 4.0 0.00 0.01 0.01 95 1010.6
20260508224555 57 309 3.0 4.0 0.00 0.00 0.00 93 1010.6
20260508224052 57 309 4.0 5.0 0.00 0.00 0.00 92 1010.6
20260508223549 57 309 5.0 7.0 0.00 0.00 0.00 90 1010.6
20260508223046 57 309 4.0 5.0 0.00 0.00 0.00 88 1010.6
20260508222544 58 309 5.0 6.0 0.00 0.00 0.00 86 1010.3
20260508222041 58 302 4.0 6.0 0.00 0.00 0.00 84 1010.3
20260508221537 58 266 3.0 5.0 0.00 0.00 0.00 83 1010.3
20260508221032 59 294 6.0 9.0 0.00 0.00 0.00 80 1010.3
20260508220530 59 302 6.0 8.0 0.00 0.00 0.00 80 1010.3
20260508220026 59 289 5.0 6.0 0.00 0.00 0.00 78 1010.3
20260508215523 59 264 4.0 6.0 0.00 0.00 0.00 78 1010.3
20260508215020 59 272 6.0 8.0 0.00 0.00 0.00 77 1010.3
20260508214517 59 271 7.0 12.0 0.00 0.00 0.00 77 1010.3
20260508214013 60 274 4.0 7.0 0.00 0.00 0.00 76 1010.3
20260508213511 60 275 5.0 7.0 0.00 0.00 0.00 75 1010.3
20260508213006 60 266 7.0 11.0 0.00 0.00 0.00 76 1010.6
20260508212503 60 247 7.0 13.0 0.00 0.00 0.00 74 1010.6
20260508211959 61 246 10.0 12.0 0.00 0.00 0.00 74 1010.3
20260508211455 60 247 9.0 13.0 0.00 0.00 0.00 74 1010.3
20260508210952 60 255 7.0 10.0 0.00 0.00 0.00 74 1010.3
20260508210448 61 248 8.0 12.0 0.00 0.00 0.00 71 1010.6
20260508205944 61 260 9.0 14.0 0.00 0.00 0.00 69 1010.6
20260508205442 61 232 11.0 18.0 0.00 0.00 0.00 72 1010.3
20260508204938 61 234 13.0 16.0 0.00 0.00 0.00 72 1010.6
20260508204436 61 236 13.0 16.0 0.00 0.00 0.00 73 1010.3
20260508203931 61 230 13.0 17.0 0.00 0.00 0.00 74 1010.6
20260508203427 61 235 13.0 19.0 0.00 0.00 0.00 71 1010.6
20260508202923 62 242 11.0 15.0 0.00 0.00 0.00 68 1010.6
20260508202421 63 249 12.0 17.0 0.00 0.00 0.00 65 1010.6
20260508201918 63 249 13.0 18.0 0.00 0.00 0.00 65 1010.6
20260508201414 63 247 11.0 15.0 0.00 0.00 0.00 66 1010.6
20260508200911 63 238 17.0 23.0 0.00 0.00 0.00 64 1010.6
20260508200408 64 246 13.0 17.0 0.00 0.00 0.00 64 1010.6
20260508195858 64 244 13.0 21.0 0.00 0.00 0.00 63 1010.6
20260508195355 64 235 16.0 22.0 0.00 0.00 0.00 61 1010.6
20260508194851 65 233 19.0 23.0 0.00 0.00 0.00 60 1010.3
20260508194349 65 244 17.0 21.0 0.00 0.00 0.00 62 1010.3
20260508193846 65 221 18.0 21.0 0.00 0.00 0.00 61 1010.3
20260508193342 65 221 17.0 20.0 0.00 0.00 0.00 61 1010.3
20260508192838 66 224 17.0 21.0 0.00 0.00 0.00 60 1010.3
20260508192336 67 227 14.0 19.0 0.00 0.00 0.00 61 1010.3
20260508191833 66 225 18.0 22.0 0.00 0.00 0.00 59 1010.3
20260508191330 66 206 18.0 25.0 0.00 0.00 0.00 59 1010.3
20260508190827 66 216 15.0 19.0 0.00 0.00 0.00 58 1010.3
20260508190323 66 213 16.0 21.0 0.00 0.00 0.00 58 1010.6
20260508185820 67 203 21.0 28.0 0.00 0.00 0.00 58 1010.3
20260508185317 66 213 19.0 22.0 0.00 0.00 0.00 59 1010.6
20260508184814 66 221 19.0 26.0 0.00 0.00 0.00 59 1010.9
20260508184311 66 213 13.0 14.0 0.00 0.00 0.00 60 1010.9
20260508183808 66 217 19.0 22.0 0.00 0.00 0.00 59 1010.9
20260508183304 67 212 15.0 20.0 0.00 0.00 0.00 60 1010.6
20260508182755 66 212 17.0 20.0 0.00 0.00 0.00 59 1010.9
20260508182252 66 219 19.0 23.0 0.00 0.00 0.00 60 1010.9
20260508181748 66 206 15.0 20.0 0.00 0.00 0.00 58 1010.6
20260508181244 67 208 17.0 24.0 0.00 0.00 0.00 59 1010.6
20260508180742 67 216 15.0 19.0 0.00 0.00 0.00 60 1010.6
20260508180238 68 204 15.0 21.0 0.00 0.00 0.00 60 1010.6
20260508175735 67 222 18.0 22.0 0.00 0.00 0.00 60 1010.9
20260508175231 67 226 17.0 22.0 0.00 0.00 0.00 60 1010.9
20260508174729 68 213 18.0 23.0 0.00 0.00 0.00 60 1010.9
20260508174227 67 227 15.0 19.0 0.00 0.00 0.00 59 1010.9
20260508173722 67 217 18.0 23.0 0.00 0.00 0.00 61 1010.9
20260508173219 67 213 16.0 20.0 0.00 0.00 0.00 61 1011.3
20260508172716 66 210 17.0 21.0 0.00 0.00 0.00 61 1011.3
20260508172213 66 217 12.0 17.0 0.00 0.00 0.00 64 1011.6
20260508171709 64 219 10.0 13.0 0.00 0.00 0.00 64 1012.0
20260508171205 65 214 13.0 17.0 0.00 0.00 0.00 63 1012.0
20260508170702 66 220 14.0 16.0 0.00 0.00 0.00 63 1012.0
20260508170200 67 239 12.0 16.0 0.00 0.00 0.00 62 1012.0
20260508165656 66 217 9.0 12.0 0.00 0.00 0.00 62 1012.0
20260508165153 65 228 12.0 14.0 0.00 0.00 0.00 61 1012.0
20260508164650 65 248 10.0 13.0 0.00 0.00 0.00 63 1012.0
20260508164146 65 254 10.0 17.0 0.00 0.00 0.00 62 1012.3
20260508163644 65 242 10.0 14.0 0.00 0.00 0.00 63 1012.3
20260508163142 65 262 6.0 10.0 0.00 0.00 0.00 64 1012.6
20260508162637 64 248 5.0 9.0 0.00 0.00 0.00 63 1013.1
20260508162135 63 265 5.0 9.0 0.00 0.00 0.00 66 1013.1
20260508161632 63 263 6.0 11.0 0.00 0.00 0.00 63 1013.1
20260508161129 63 283 6.0 11.0 0.00 0.00 0.00 64 1013.1
20260508160627 62 238 9.0 12.0 0.00 0.00 0.00 66 1013.4
20260508160124 62 247 9.0 13.0 0.00 0.00 0.00 66 1013.4
20260508155621 61 258 6.0 10.0 0.00 0.00 0.00 65 1013.4
20260508155118 62 252 8.0 12.0 0.00 0.00 0.00 66 1013.4
20260508154615 62 262 6.0 8.0 0.00 0.00 0.00 64 1013.4
20260508154112 62 271 8.0 15.0 0.00 0.00 0.00 65 1013.4
20260508153609 61 278 8.0 14.0 0.00 0.00 0.00 65 1013.4
20260508153105 61 258 9.0 13.0 0.00 0.00 0.00 65 1013.4
20260508152602 61 247 8.0 13.0 0.00 0.00 0.00 67 1013.4
20260508152057 61 248 7.0 10.0 0.00 0.00 0.00 67 1013.4
20260508151554 60 249 7.0 11.0 0.00 0.00 0.00 68 1013.4
20260508151052 59 255 10.0 13.0 0.00 0.00 0.00 68 1013.4
20260508150549 59 233 10.0 14.0 0.00 0.00 0.00 67 1013.4
20260508150044 59 238 9.0 12.0 0.00 0.00 0.00 68 1013.7
20260508145541 59 244 9.0 15.0 0.00 0.00 0.00 69 1013.7
20260508145037 59 242 12.0 17.0 0.00 0.00 0.00 69 1013.7
20260508144535 59 232 14.0 18.0 0.00 0.00 0.00 68 1013.7
20260508144032 59 238 8.0 11.0 0.00 0.00 0.00 70 1013.7
20260508143530 58 242 9.0 11.0 0.00 0.00 0.00 69 1013.7
20260508143026 58 239 10.0 17.0 0.00 0.00 0.00 71 1013.7
20260508142524 57 238 12.0 15.0 0.00 0.00 0.00 70 1013.7
20260508142020 57 246 11.0 16.0 0.00 0.00 0.00 72 1013.7
20260508141516 55 225 12.0 15.0 0.00 0.00 0.00 73 1013.7
20260508141014 55 226 10.0 11.0 0.00 0.00 0.00 75 1014.1
20260508140511 54 239 9.0 11.0 0.00 0.00 0.00 76 1014.1
20260508140008 54 225 8.0 10.0 0.00 0.00 0.00 76 1014.1
20260508135503 53 213 8.0 10.0 0.00 0.00 0.00 77 1014.1
20260508135000 53 208 6.0 7.0 0.00 0.00 0.00 77 1014.1
20260508134456 53 208 7.0 9.0 0.00 0.00 0.00 78 1014.1
20260508133953 52 217 9.0 10.0 0.00 0.00 0.00 77 1014.1
20260508133451 52 213 7.0 9.0 0.00 0.00 0.00 79 1014.1
20260508132947 52 212 9.0 10.0 0.00 0.00 0.00 78 1014.1
20260508132446 52 228 8.0 9.0 0.00 0.00 0.00 79 1014.4
20260508131942 51 222 8.0 9.0 0.00 0.00 0.00 78 1014.1
20260508131437 51 213 7.0 9.0 0.00 0.00 0.00 79 1014.4
20260508130934 51 216 9.0 10.0 0.00 0.00 0.00 81 1014.1
20260508130431 51 216 8.0 10.0 0.00 0.00 0.00 80 1014.1
20260508125927 50 221 8.0 10.0 0.00 0.00 0.00 81 1014.4
20260508125423 50 233 7.0 8.0 0.00 0.00 0.00 82 1014.4
20260508124921 50 233 7.0 8.0 0.00 0.00 0.00 82 1014.4
20260508124419 50 233 7.0 9.0 0.00 0.00 0.00 83 1014.4
20260508123916 50 233 7.0 9.0 0.00 0.00 0.00 82 1014.4
20260508123415 50 238 7.0 9.0 0.00 0.00 0.00 83 1014.4
20260508122911 49 238 8.0 10.0 0.00 0.00 0.00 82 1014.4
20260508122408 49 233 9.0 11.0 0.00 0.00 0.00 82 1014.1
20260508121905 50 237 8.0 10.0 0.00 0.00 0.00 81 1014.1
20260508121403 50 237 7.0 9.0 0.00 0.00 0.00 80 1014.1
20260508120900 50 241 9.0 12.0 0.00 0.00 0.00 80 1014.4
20260508120358 49 238 9.0 11.0 0.00 0.00 0.00 82 1014.4
20260508115855 49 237 9.0 10.0 0.00 0.00 0.00 81 1014.1
20260508115353 49 238 9.0 11.0 0.00 0.00 0.00 81 1014.1
20260508114849 49 237 8.0 11.0 0.00 0.00 0.00 81 1014.1
20260508114346 49 232 11.0 13.0 0.00 0.00 0.00 81 1013.7
20260508113843 49 224 8.0 10.0 0.00 0.00 0.00 81 1013.7
20260508113341 49 231 10.0 13.0 0.00 0.00 0.00 79 1013.7
20260508112837 49 235 11.0 15.0 0.00 0.00 0.00 80 1013.7
20260508112335 49 247 8.0 10.0 0.00 0.00 0.00 80 1013.7
20260508111831 49 247 8.0 10.0 0.00 0.00 0.00 82 1013.7
20260508111328 48 247 6.0 8.0 0.00 0.00 0.00 85 1013.7
20260508110825 47 247 4.0 5.0 0.00 0.00 0.00 86 1013.7
20260508110323 47 247 4.0 4.0 0.00 0.00 0.00 87 1013.4
20260508105823 46 247 2.0 3.0 0.00 0.00 0.00 90 1013.4
20260508105319 46 247 2.0 3.0 0.00 0.00 0.00 90 1013.4
20260508104816 46 247 2.0 3.0 0.00 0.00 0.00 90 1013.4
20260508104313 46 247 0.0 2.0 0.00 0.00 0.00 89 1013.4
20260508103811 46 247 1.0 3.0 0.00 0.00 0.00 87 1013.4
20260508103307 46 247 3.0 4.0 0.00 0.00 0.00 86 1013.4
20260508102805 46 247 4.0 5.0 0.00 0.00 0.00 87 1013.1
20260508102306 46 247 3.0 4.0 0.00 0.00 0.00 86 1013.4
20260508101800 46 247 3.0 4.0 0.00 0.00 0.00 84 1013.1
20260508101257 47 247 5.0 7.0 0.00 0.00 0.00 82 1013.1
20260508100755 47 247 6.0 9.0 0.00 0.00 0.00 82 1013.1
20260508100253 47 247 5.0 6.0 0.00 0.00 0.00 82 1013.4
20260508095748 47 247 5.0 6.0 0.00 0.00 0.00 82 1013.1
20260508095246 47 247 5.0 7.0 0.00 0.00 0.00 81 1013.1
20260508094743 47 247 6.0 8.0 0.00 0.00 0.00 81 1013.1
20260508094240 47 247 7.0 9.0 0.00 0.00 0.00 80 1013.1
20260508093737 48 247 7.0 9.0 0.00 0.00 0.00 79 1013.1
20260508093235 48 246 8.0 10.0 0.00 0.00 0.00 79 1013.1
20260508092731 48 247 6.0 10.0 0.00 0.00 0.00 77 1013.1
20260508092230 48 251 4.0 7.0 0.00 0.00 0.00 77 1013.1
20260508091727 48 244 6.0 9.0 0.00 0.00 0.00 77 1013.1
20260508091224 48 246 7.0 10.0 0.00 0.00 0.00 78 1013.4
20260508090722 48 243 7.0 10.0 0.00 0.00 0.00 79 1013.4
20260508090219 48 238 6.0 8.0 0.00 0.00 0.00 79 1013.4
20260508085715 47 247 8.0 10.0 0.00 0.00 0.00 80 1013.4
20260508085213 47 238 7.0 9.0 0.00 0.00 0.00 81 1013.4
20260508084703 46 212 6.0 8.0 0.00 0.00 0.00 82 1013.4
20260508084201 46 212 6.0 7.0 0.00 0.00 0.00 82 1013.4
20260508083658 46 210 4.0 6.0 0.00 0.00 0.00 83 1013.4
20260508083155 46 210 5.0 6.0 0.00 0.00 0.00 83 1013.4
20260508082655 46 210 5.0 6.0 0.00 0.00 0.00 84 1013.4
20260508082153 46 210 6.0 6.0 0.00 0.00 0.00 83 1013.4
20260508081645 46 210 6.0 6.0 0.00 0.00 0.00 84 1013.4
20260508081142 45 210 6.0 7.0 0.00 0.00 0.00 84 1013.4
20260508080639 45 210 5.0 5.0 0.00 0.00 0.00 86 1013.4
20260508080137 44 210 4.0 5.0 0.00 0.00 0.00 86 1013.4
20260508075633 44 210 4.0 4.0 0.00 0.00 0.00 87 1013.4
20260508075130 45 210 2.0 3.0 0.00 0.00 0.00 86 1013.4
20260508074628 45 210 3.0 4.0 0.00 0.00 0.00 85 1013.4
20260508074124 45 210 4.0 5.0 0.00 0.00 0.00 86 1013.4
20260508073621 44 210 4.0 5.0 0.00 0.00 0.00 87 1013.4
20260508073119 44 210 3.0 4.0 0.00 0.00 0.00 89 1013.4
20260508072614 44 210 3.0 4.0 0.00 0.00 0.00 88 1013.7
20260508072112 45 210 2.0 3.0 0.00 0.00 0.00 86 1013.7
20260508071610 45 210 1.0 4.0 0.00 0.00 0.00 84 1013.7
20260508071108 45 210 2.0 4.0 0.00 0.00 0.00 85 1013.7
20260508070605 45 210 4.0 5.0 0.00 0.00 0.00 85 1013.7
20260508065600 47 210 5.0 6.0 0.00 0.00 0.00 81 1013.7
20260508065058 47 210 5.0 7.0 0.00 0.00 0.00 80 1013.7
20260508064555 46 204 6.0 7.0 0.00 0.00 0.00 82 1013.7
20260508064053 46 204 4.0 5.0 0.00 0.00 0.00 82 1013.7
20260508063550 46 204 4.0 5.0 0.00 0.00 0.00 83 1013.7
20260508063048 46 204 4.0 4.0 0.00 0.00 0.00 83 1013.7
20260508062545 46 204 4.0 5.0 0.00 0.00 0.00 84 1014.1
20260508062042 45 204 4.0 5.0 0.00 0.00 0.00 86 1013.7
20260508061540 45 204 4.0 4.0 0.00 0.00 0.00 87 1013.7
20260508061036 44 204 4.0 4.0 0.00 0.00 0.00 89 1013.7
20260508060533 44 204 1.0 3.0 0.00 0.00 0.00 90 1013.7
20260508060031 44 204 3.0 3.0 0.00 0.00 0.00 89 1013.7
20260508055526 44 204 1.0 3.0 0.00 0.00 0.00 88 1014.1
20260508055024 45 204 0.0 0.0 0.00 0.00 0.00 88 1014.1
20260508054520 45 204 0.0 0.0 0.00 0.00 0.00 86 1014.1
20260508054017 45 204 0.0 0.0 0.00 0.00 0.00 86 1014.1
20260508053514 46 204 0.0 0.0 0.00 0.00 0.00 85 1014.1
20260508053013 47 204 0.0 0.0 0.00 0.00 0.00 83 1014.1
20260508052509 48 204 0.0 0.0 0.00 0.00 0.00 78 1014.1
20260508052006 48 204 1.0 4.0 0.00 0.00 0.00 78 1014.4
20260508051502 49 204 1.0 4.0 0.00 0.00 0.00 77 1014.4
20260508050957 49 204 0.0 0.0 0.00 0.00 0.00 77 1014.4
20260508050454 49 204 0.0 0.0 0.00 0.00 0.00 78 1014.1
20260508045950 49 204 0.0 0.0 0.00 0.00 0.00 79 1014.4
20260508045448 49 204 0.0 0.0 0.00 0.00 0.00 79 1014.1
20260508044945 49 204 0.0 0.0 0.00 0.00 0.00 79 1014.1
20260508044442 49 204 0.0 0.0 0.00 0.00 0.00 79 1014.1
20260508043937 50 204 4.0 5.0 0.00 0.00 0.00 79 1014.1
20260508043435 50 204 7.0 10.0 0.00 0.00 0.00 77 1014.1
20260508042931 50 203 6.0 8.0 0.00 0.00 0.00 77 1014.1
20260508042429 50 203 7.0 9.0 0.00 0.00 0.00 79 1014.1
20260508041926 50 198 7.0 9.0 0.00 0.00 0.00 79 1014.1
20260508041422 50 194 6.0 7.0 0.00 0.00 0.00 79 1014.1
20260508040919 50 194 9.0 11.0 0.00 0.00 0.00 79 1013.7
20260508040416 50 194 9.0 10.0 0.00 0.00 0.00 79 1013.7
20260508035914 50 193 8.0 10.0 0.00 0.00 0.00 80 1014.1
20260508035406 50 193 6.0 7.0 0.00 0.00 0.00 80 1013.7
20260508034902 49 201 7.0 10.0 0.00 0.00 0.00 82 1013.7
20260508034400 49 233 4.0 5.0 0.00 0.00 0.00 83 1014.1
20260508033856 49 233 4.0 4.0 0.00 0.00 0.00 82 1013.7
20260508033354 49 233 4.0 5.0 0.00 0.00 0.00 84 1013.7
20260508032851 48 233 1.0 3.0 0.00 0.00 0.00 88 1013.7
20260508032348 48 233 1.0 3.0 0.00 0.00 0.00 90 1013.7
20260508031845 48 233 0.0 0.0 0.00 0.00 0.00 88 1014.1
20260508031342 48 233 3.0 4.0 0.00 0.00 0.00 87 1013.7
20260508030838 48 233 3.0 4.0 0.00 0.00 0.00 88 1014.1
20260508030335 48 233 3.0 4.0 0.00 0.00 0.00 86 1014.1
20260508025832 49 233 4.0 5.0 0.00 0.00 0.00 84 1014.1
20260508025329 49 233 4.0 6.0 0.00 0.00 0.00 84 1014.1
20260508024826 49 233 4.0 5.0 0.00 0.00 0.00 83 1014.4
20260508024322 49 233 4.0 5.0 0.00 0.00 0.00 83 1014.1
20260508023819 49 233 5.0 6.0 0.00 0.00 0.00 85 1014.1
20260508023316 48 233 4.0 4.0 0.00 0.00 0.00 89 1014.1
20260508022812 48 233 2.0 4.0 0.00 0.00 0.00 90 1014.1
20260508022309 48 258 0.0 0.0 0.00 0.00 0.00 88 1014.1
20260508021806 48 258 0.0 0.0 0.00 0.00 0.00 89 1014.1
20260508021301 48 258 0.0 1.0 0.00 0.00 0.00 89 1014.1
20260508020758 48 258 0.0 2.0 0.00 0.00 0.00 90 1014.1
20260508020256 48 258 0.0 0.0 0.00 0.00 0.00 89 1014.1
20260508015752 49 258 0.0 0.0 0.00 0.00 0.00 84 1014.1
20260508015250 49 258 2.0 3.0 0.00 0.00 0.00 84 1014.1
20260508014746 49 258 2.0 3.0 0.00 0.00 0.00 86 1014.1
20260508014243 49 258 0.0 0.0 0.00 0.00 0.00 87 1014.1
20260508013739 49 258 1.0 2.0 0.00 0.00 0.00 87 1013.7
20260508013236 49 258 2.0 3.0 0.00 0.00 0.00 86 1014.1
20260508012733 49 258 2.0 3.0 0.00 0.00 0.00 85 1014.1
20260508012230 49 258 2.0 3.0 0.00 0.00 0.00 84 1014.1
20260508011728 49 258 2.0 3.0 0.00 0.00 0.00 84 1014.1
20260508011225 50 258 2.0 3.0 0.00 0.00 0.00 83 1013.7
20260508010722 50 258 3.0 4.0 0.00 0.00 0.00 77 1014.1
20260508010220 50 258 2.0 3.0 0.00 0.00 0.00 76 1014.1
20260508005717 50 258 3.0 4.0 0.00 0.00 0.00 77 1014.1
20260508005214 51 258 3.0 5.0 0.00 0.00 0.00 74 1014.4
20260508004709 51 258 3.0 4.0 0.00 0.00 0.00 73 1014.4
20260508004206 51 258 2.0 3.0 0.00 0.00 0.00 74 1014.4
20260508003702 51 258 3.0 4.0 0.00 0.00 0.00 73 1014.4
20260508003200 51 258 3.0 4.0 0.00 0.00 0.00 74 1014.4
20260508002656 51 258 2.0 5.0 0.00 0.00 0.00 76 1014.1
20260508002154 51 258 0.0 2.0 0.00 0.00 0.00 75 1014.1
20260508001649 51 258 2.0 4.0 0.00 0.00 0.00 73 1014.4
20260508001145 51 258 3.0 5.0 0.00 0.00 0.00 72 1014.4
20260508000641 51 272 2.0 4.0 0.00 0.00 0.00 73 1014.4
20260508000139 51 272 2.0 3.0 0.00 0.00 0.00 73 1014.4
20260507235635 52 272 4.0 5.0 0.00 0.00 0.00 70 1014.4
20260507235133 52 272 4.0 6.0 0.00 0.00 0.00 69 1014.4
20260507234629 52 275 5.0 9.0 0.00 0.00 0.00 67 1014.4
20260507234126 53 262 10.0 14.0 0.00 0.00 0.00 64 1014.8
20260507233623 53 242 5.0 12.0 0.00 0.00 0.00 62 1014.8
20260507233121 53 289 10.0 15.0 0.00 0.00 0.00 64 1014.4
20260507232617 54 256 11.0 16.0 0.00 0.00 0.00 60 1014.4
20260507232115 55 249 11.0 15.0 0.00 0.00 0.00 58 1014.4
20260507231611 55 252 6.0 9.0 0.00 0.00 0.00 57 1014.4